Location: Hawks Ness
(60.2333°N, 1.1667°W)
Time: 20:32:18
(UTC+00:00)

NOSS 2-2 (D) - Visible Passes

Search period start: 20 January 2020 00:00
Search period end: 30 January 2020 00:00
Orbit: 485 x 1724 km, 63.3° (Epoch: 19 January)

Date Brightness Start Highest point End Pass type
(mag) Time Alt. Az. Time Alt. Az. Time Alt. Az.
20 Jan 6.0 05:11:50 10° SSE 05:14:24 18° ESE 05:17:16 10° ENE visible
20 Jan 3.7 07:00:16 10° SW 07:04:05 71° SSE 07:08:54 10° ENE visible
21 Jan 6.3 04:28:38 10° SE 04:29:38 11° ESE 04:30:40 10° E visible
21 Jan 4.2 06:15:29 11° SSW 06:18:57 50° SE 06:23:28 10° ENE visible
22 Jan 4.9 05:31:55 20° S 05:33:55 34° SE 05:37:59 10° ENE visible
22 Jan 3.5 07:20:10 10° WSW 07:24:08 78° NNW 07:29:15 10° ENE visible
23 Jan 5.4 04:48:16 21° SE 04:48:59 22° ESE 04:52:23 10° ENE visible
23 Jan 3.5 06:35:40 15° WSW 06:38:52 84° SSE 06:43:48 10° ENE visible
24 Jan 6.1 04:04:32 14° ESE 04:04:32 14° ESE 04:06:25 10° E visible
24 Jan 3.8 05:51:56 31° SSW 05:53:40 62° SE 05:58:22 10° ENE visible
24 Jan 3.8 07:40:15 10° W 07:44:21 63° N 07:49:44 10° ENE visible
25 Jan 4.3 05:08:08 41° SSE 05:08:35 42° SE 05:12:55 10° ENE visible
25 Jan 3.6 06:55:33 14° W 06:58:59 71° NNW 07:04:11 10° ENE visible
26 Jan 5.3 04:24:19 26° ESE 04:24:19 26° ESE 04:27:24 10° ENE visible
26 Jan 3.5 06:11:42 30° WSW 06:13:40 86° NNW 06:18:42 10° ENE visible
27 Jan 6.3 03:40:26 15° E 03:40:26 15° E 03:41:41 10° ENE visible
27 Jan 3.5 05:27:49 61° SSW 05:28:25 74° SSE 05:33:15 10° ENE visible
27 Jan 3.9 07:15:12 11° W 07:19:14 61° N 07:24:43 10° ENE visible
28 Jan 4.3 04:43:54 47° ESE 04:43:54 47° ESE 04:47:49 10° ENE visible
28 Jan 3.7 06:31:17 23° W 06:33:50 66° NNW 06:39:08 10° ENE visible
29 Jan 5.6 03:59:57 25° E 03:59:57 25° E 04:02:21 10° ENE visible
29 Jan 3.5 05:47:21 47° W 05:48:29 77° NNW 05:53:37 10° ENE visible
29 Jan 4.1 07:35:10 10° WNW 07:39:32 62° N 07:45:22 10° E visible
